Showing default

ALSAT 1N, 41789

Orbit data source: Space-Track

ALSAT 1N, 41789 is an Algerian payload satellite in SSO that was launched on Mon, 26 Sep 2016 UTC via a PSLV launch vehicle from the Sirharikota (SRI). Payloads include a variety of satellites, spacecraft, and rockets equipped with specific instruments for various scientific and technological missions. These include communications satellites like Starlink; space stations such as the ISS; scientific satellites like the Hubble; Earth observation satellites from companies like Planet Labs, Umbra, and HawkEye 360; GPS; miniature CubeSats for education and research; and military/defense satellites.

Loading next visibility...
ALSAT 1N details
Identifier
41789, 2016-059G
Orbit
SSO
Last TLE update8 hours ago
Origin
Flag of DZASAL/UKSA (DZ / ALG)
ManufacturerASAL/SSC
MissionNon-operational Civil Imaging
Bus & MotorCUBESAT 3U, Unknown motor
Mass7 kg wet, 7 kg dry
Launch date (UTC)
2016-09-26 (8 years ago)
Launch vehicle
PSLV
Launch site
Sirharikota (SRI)
Object type
Payload
Rocket body
Debris
Shape & HBRBox, 0.3 m
Radar Cross Section0.075 m², Small (<0.1 m²)

Expand to show TLE details & history

TLE from 8 hours ago
0 ALSAT 1N
1 41789U 16059G   24361.54591155  .00002754  00000-0  48966-3 0  9995
2 41789  97.8154  18.2129 0028097 104.8034 255.6287 14.67649520441091
Epoch: 2024-12-26T13:06Z
Definitive object data (Epoch: 2024-12-26T13:06:06.757Z)
Latitude-0.00006°
Longitude86.16099°
Altitude676.556 km
Speed7.516 km/s
True Right ascension01h 12m 51s
True Declination0° 00' 00"
Sunlit
Object was in daylight at TLE epoch
Visualization TLE readout
Latitude-77.28241°
Longitude123.69537°
Altitude716.02 km
Speed7.486 km/s
Apparent Right ascension07h 18m 11s
Apparent Declination-62° 42' 56"
Sunlit
Object is in daylight
Visualization observer readout
Local Sidereal Time20:18:00
Azimuth163.428° S
Elevation-65.5°
Doppler factor1
Orbital elements
Apogee altitude685.426 km
Perigee altitude645.844 km
Semi-major axis7,043.772 km
Eccentricity0.0028097
Inclination97.8154°
RAAN18.2129°
Arg. of periapsis104.8034°
True anomaly255.31708°
Mean anomaly255.6287°
Eccentric anomaly255.47286°
Mean motion3.67143 °/min
BSTAR0.00048966
Orbital period98.05 mins
Loading maneuver chart data...
Loading historical data...
Loading historical data...
Loading historical data...
Loading historical data...
Loading historical data...
Loading historical data...
Loading historical data...

ALSAT 1N Visibility forecast

Observer location: undefined°, undefined

Span
Click to sort rows by Start time (UTC) header in descending order
Start Az.
Max El. time (UTC)
Max El. Az.
Max El.
End time (UTC)
End Az.
7 mins2024-12-27 00:41:05.847Z132.644° SE2024-12-27 00:45:05.847Z64.609° ENE28.665°2024-12-27 00:48:05.847Z12.445° NNE
5 mins2024-12-27 02:20:05.847Z232.112° WSW2024-12-27 02:22:05.847Z267.143° W20.376°2024-12-27 02:25:05.847Z312.903° NW
7 mins2024-12-27 14:14:05.847Z13.406° NNE2024-12-27 14:17:05.847Z188.108° SSW43.678°2024-12-27 14:21:05.847Z193.144° SSW
|